This is the latest recevied weather packets stored in our database for station/object UR7D-12. If no packets are shown the sender has not sent any weather packets the latest 10 day(s).
| Time | Temp. | Humidity | Pressure | Rain* | Wind** | Luminosity | Snow |
|---|---|---|---|---|---|---|---|
| 1778074674 | 25° C | 43% | 985.8 hPa | 0 mm | - | - | - |
| 1778074374 | 24.44° C | 43% | 985.8 hPa | 0 mm | - | - | - |
| 1778074072 | 24.44° C | 43% | 985.8 hPa | 0 mm | - | - | - |
| 1778073773 | 24.44° C | 43% | 986.1 hPa | 0 mm | - | - | - |
| 1778073172 | 25° C | 43% | 985.9 hPa | 0 mm | - | - | - |
| 1778072871 | 24.44° C | 43% | 985.9 hPa | 0 mm | - | - | - |
| 1778070770 | 24.44° C | 43% | 986.4 hPa | 0 mm | - | - | - |
| 1778069569 | 23.89° C | 44% | 986.5 hPa | 0 mm | - | - | - |
| 1778068969 | 23.89° C | 43% | 986.5 hPa | 0 mm | - | - | - |
| 1778068068 | 23.33° C | 44% | 986.7 hPa | 0 mm | - | - | - |
| 1778061762 | 22.78° C | 46% | 987.6 hPa | 0 mm | - | - | - |
| 1778061160 | 22.78° C | 48% | 987.3 hPa | 0 mm | - | - | - |
| 1778060860 | 22.22° C | 51% | 987.3 hPa | 0 mm | - | - | - |
| 1778060259 | 21.67° C | 49% | 987.6 hPa | 0 mm | - | - | - |
| 1778059959 | 21.67° C | 53% | 987.6 hPa | 0 mm | - | - | - |
| 1778059660 | 21.67° C | 53% | 987.8 hPa | 0 mm | - | - | - |
| 1778059058 | 21.11° C | 49% | 987.9 hPa | 0 mm | - | - | - |
| 1778057857 | 21.11° C | 53% | 987.6 hPa | 0 mm | - | - | - |
| 1778057258 | 21.11° C | 53% | 987.7 hPa | 0 mm | - | - | - |
| 1778056656 | 21.11° C | 52% | 987.7 hPa | 0 mm | - | - | - |
| 1778056355 | 21.11° C | 53% | 987.7 hPa | 0 mm | - | - | - |
| 1778056055 | 20.56° C | 54% | 987.6 hPa | 0 mm | - | - | - |
| 1778055755 | 20.56° C | 53% | 987.6 hPa | 0 mm | - | - | - |
| 1778055454 | 21.11° C | 53% | 987.5 hPa | 0 mm | - | - | - |
| 1778054854 | 20.56° C | 53% | 987.4 hPa | 0 mm | - | - | - |
* Rain latest hour (hover to see other rain measurements)
** Current wind speed in m/s (hover to see current wind gust speed)